When you browse on this site, cookies collect data to enhance your experience and personalize the content and advertising you see.
Visit our Privacy Policy to learn more. By continuing to use the site, you agree to this use of cookies and data.
  • In Hungary
  • List of Countries
  • For 7 days
  • Water Temperature
  • Satellite Maps
  • Weather Map
  • News
  • Weather Widgets
  • user-avatar
    Login

    Hourly Weather Pabna

    Today, 12 December, Wednesday

    Time Temperature Precipitation Wind Pressure Humidity
    00:00 +23°C° 0 mm 1 mps 758 mmHg 46%
    01:00 +22°C° 0 mm 1 mps 758 mmHg 47%
    02:00 +22°C° 0 mm 1 mps 758 mmHg 48%
    03:00 +22°C° 0 mm 1 mps 758 mmHg 49%
    04:00 +21°C° 0 mm 1 mps 758 mmHg 50%
    05:00 +21°C° 0 mm 1 mps 758 mmHg 51%
    06:00 +20°C° 0 mm 1 mps 758 mmHg 53%
    07:00 +22°C° 0 mm 1 mps 759 mmHg 49%
    08:00 +23°C° 0 mm 1 mps 759 mmHg 46%
    09:00 +25°C° 0 mm 1 mps 760 mmHg 42%
    10:00 +26°C° 0 mm 1 mps 760 mmHg 39%
    11:00 +28°C° 0 mm 2 mps 759 mmHg 36%
    12:00 +29°C° 0 mm 2 mps 759 mmHg 32%
    13:00 +29°C° 0 mm 2 mps 759 mmHg 31%
    14:00 +30°C° 0 mm 2 mps 758 mmHg 30%
    15:00 +30°C° 0 mm 2 mps 757 mmHg 29%
    16:00 +29°C° 0 mm 2 mps 757 mmHg 32%
    17:00 +27°C° 0 mm 2 mps 757 mmHg 35%
    18:00 +26°C° 0 mm 2 mps 757 mmHg 38%
    19:00 +25°C° 0 mm 1 mps 758 mmHg 40%
    20:00 +25°C° 0 mm 1 mps 758 mmHg 42%
    21:00 +24°C° 0 mm 1 mps 759 mmHg 43%
    22:00 +24°C° 0 mm 1 mps 759 mmHg 45%
    23:00 +23°C° 0 mm 1 mps 759 mmHg 46%

    Tomorrow, 13 December, Thursday

    Time Temperature Precipitation Wind Pressure Humidity
    00:00 +23°C° 0 mm 1 mps 760 mmHg 48%
    01:00 +22°C° 0 mm 1 mps 759 mmHg 49%
    02:00 +22°C° 0 mm 1 mps 759 mmHg 50%
    03:00 +22°C° 0 mm 1 mps 759 mmHg 51%
    04:00 +21°C° 0 mm 1 mps 759 mmHg 53%
    05:00 +21°C° 0 mm 1 mps 759 mmHg 55%
    06:00 +21°C° 0 mm 1 mps 759 mmHg 57%
    07:00 +21°C° 0 mm 2 mps 760 mmHg 54%
    08:00 +23°C° 0 mm 2 mps 761 mmHg 51%
    09:00 +25°C° 0 mm 2 mps 761 mmHg 48%
    10:00 +26°C° 0 mm 2 mps 761 mmHg 44%
    11:00 +28°C° 0 mm 2 mps 761 mmHg 40%
    12:00 +29°C° 0 mm 2 mps 760 mmHg 35%
    13:00 +30°C° 0 mm 2 mps 760 mmHg 33%
    14:00 +30°C° 0 mm 2 mps 759 mmHg 31%
    15:00 +30°C° 0 mm 3 mps 758 mmHg 28%
    16:00 +29°C° 0 mm 2 mps 758 mmHg 31%
    17:00 +27°C° 0 mm 2 mps 758 mmHg 34%
    18:00 +26°C° 0 mm 2 mps 758 mmHg 37%
    19:00 +25°C° 0 mm 2 mps 759 mmHg 38%
    20:00 +25°C° 0 mm 2 mps 759 mmHg 40%
    21:00 +24°C° 0 mm 2 mps 760 mmHg 41%
    22:00 +23°C° 0 mm 2 mps 760 mmHg 43%
    23:00 +22°C° 0 mm 3 mps 760 mmHg 45%

    Day after tomorrow, 14 December, Friday

    Time Temperature Precipitation Wind Pressure Humidity
    00:00 +21°C° 0 mm 3 mps 760 mmHg 47%
    01:00 +21°C° 0 mm 3 mps 760 mmHg 50%
    02:00 +20°C° 0 mm 3 mps 759 mmHg 53%
    03:00 +20°C° 0 mm 3 mps 759 mmHg 56%
    04:00 +19°C° 0 mm 2 mps 759 mmHg 59%
    05:00 +19°C° 0 mm 2 mps 759 mmHg 61%
    06:00 +18°C° 0 mm 2 mps 760 mmHg 64%
    07:00 +20°C° 0 mm 3 mps 760 mmHg 59%
    08:00 +21°C° 0 mm 3 mps 761 mmHg 54%
    09:00 +24°C° 0 mm 3 mps 762 mmHg 50%
    10:00 +26°C° 0 mm 4 mps 762 mmHg 43%
    11:00 +28°C° 0 mm 4 mps 761 mmHg 36%
    12:00 +30°C° 0 mm 4 mps 761 mmHg 29%
    13:00 +30°C° 0 mm 4 mps 760 mmHg 27%
    14:00 +30°C° 0 mm 4 mps 760 mmHg 25%
    15:00 +30°C° 0 mm 4 mps 759 mmHg 23%
    16:00 +29°C° 0 mm 4 mps 759 mmHg 26%
    17:00 +27°C° 0 mm 3 mps 759 mmHg 29%
    18:00 +25°C° 0 mm 3 mps 759 mmHg 32%
    19:00 +25°C° 0 mm 2 mps 760 mmHg 34%
    20:00 +24°C° 0 mm 2 mps 760 mmHg 36%
    21:00 +23°C° 0 mm 2 mps 761 mmHg 37%
    22:00 +23°C° 0 mm 2 mps 761 mmHg 39%
    23:00 +21°C° 0 mm 2 mps 761 mmHg 41%

    15 December, Saturday

    Time Temperature Precipitation Wind Pressure Humidity
    00:00 +21°C° 0 mm 2 mps 761 mmHg 43%
    01:00 +20°C° 0 mm 2 mps 761 mmHg 44%
    02:00 +20°C° 0 mm 2 mps 761 mmHg 45%
    03:00 +19°C° 0 mm 3 mps 760 mmHg 46%
    04:00 +19°C° 0 mm 3 mps 760 mmHg 46%
    05:00 +19°C° 0 mm 3 mps 761 mmHg 47%
    06:00 +18°C° 0 mm 3 mps 761 mmHg 48%
    07:00 +20°C° 0 mm 3 mps 761 mmHg 45%
    08:00 +21°C° 0 mm 3 mps 762 mmHg 41%
    09:00 +24°C° 0 mm 3 mps 763 mmHg 38%
    10:00 +25°C° 0 mm 4 mps 763 mmHg 33%
    11:00 +27°C° 0 mm 4 mps 762 mmHg 29%
    12:00 +29°C° 0 mm 4 mps 762 mmHg 24%
    13:00 +29°C° 0 mm 4 mps 761 mmHg 24%
    14:00 +28°C° 0 mm 4 mps 760 mmHg 25%
    15:00 +28°C° 0 mm 3 mps 760 mmHg 25%
    16:00 +27°C° 0 mm 3 mps 760 mmHg 27%
    17:00 +26°C° 0 mm 3 mps 760 mmHg 28%
    18:00 +25°C° 0 mm 2 mps 760 mmHg 30%
    19:00 +25°C° 0 mm 3 mps 761 mmHg 31%
    20:00 +25°C° 0 mm 3 mps 761 mmHg 31%
    21:00 +24°C° 0 mm 3 mps 762 mmHg 32%
    22:00 +24°C° 0 mm 3 mps 762 mmHg 34%
    23:00 +24°C° 0 mm 3 mps 762 mmHg 37%

    16 December, Sunday

    Time Temperature Precipitation Wind Pressure Humidity
    00:00 +22°C° 0 mm 3 mps 761 mmHg 39%
    01:00 +22°C° 0 mm 3 mps 761 mmHg 39%
    02:00 +22°C° 0 mm 3 mps 761 mmHg 40%
    03:00 +21°C° 0 mm 3 mps 760 mmHg 41%
    04:00 +21°C° 0 mm 3 mps 761 mmHg 41%
    05:00 +21°C° 0 mm 3 mps 761 mmHg 40%
    06:00 +21°C° 0 mm 3 mps 761 mmHg 40%
    07:00 +21°C° 0 mm 3 mps 761 mmHg 40%
    08:00 +21°C° 0 mm 3 mps 762 mmHg 40%
    09:00 +21°C° 0 mm 3 mps 763 mmHg 41%
    10:00 +22°C° 0 mm 3 mps 763 mmHg 41%
    11:00 +22°C° 0 mm 3 mps 762 mmHg 41%
    12:00 +22°C° 0 mm 3 mps 762 mmHg 41%
    13:00 +22°C° 0 mm 3 mps 761 mmHg 42%
    14:00 +22°C° 0 mm 3 mps 761 mmHg 43%
    15:00 +22°C° 0 mm 3 mps 760 mmHg 44%
    16:00 +21°C° 0 mm 3 mps 760 mmHg 44%
    17:00 +21°C° 0 mm 3 mps 760 mmHg 43%
    18:00 +21°C° 0 mm 3 mps 760 mmHg 43%
    19:00 +21°C° 0 mm 3 mps 761 mmHg 43%
    20:00 +21°C° 0 mm 3 mps 761 mmHg 42%
    21:00 +21°C° 0 mm 3 mps 761 mmHg 41%
    22:00 +21°C° 0 mm 3 mps 761 mmHg 41%
    23:00 +21°C° 0 mm 3 mps 761 mmHg 40%

    17 December, Monday

    Time Temperature Precipitation Wind Pressure Humidity
    00:00 +21°C° 0 mm 3 mps 761 mmHg 40%
    01:00 +21°C° 0 mm 3 mps 761 mmHg 40%
    02:00 +21°C° 0 mm 3 mps 760 mmHg 40%
    03:00 +21°C° 0 mm 3 mps 760 mmHg 40%
    04:00 +21°C° 0 mm 3 mps 760 mmHg 39%
    05:00 +21°C° 0 mm 3 mps 760 mmHg 39%
    06:00 +21°C° 0 mm 3 mps 760 mmHg 38%
    07:00 +21°C° 0 mm 3 mps 761 mmHg 36%
    08:00 +22°C° 0 mm 4 mps 761 mmHg 34%
    09:00 +23°C° 0 mm 4 mps 762 mmHg 33%
    10:00 +26°C° 0 mm 4 mps 762 mmHg 30%
    11:00 +27°C° 0 mm 5 mps 761 mmHg 28%
    12:00 +29°C° 0 mm 5 mps 761 mmHg 25%
    13:00 +28°C° 0 mm 5 mps 760 mmHg 27%
    14:00 +27°C° 0 mm 5 mps 760 mmHg 30%
    15:00 +26°C° 0 mm 4 mps 759 mmHg 32%
    16:00 +25°C° 0 mm 5 mps 759 mmHg 33%
    17:00 +23°C° 0 mm 5 mps 760 mmHg 33%
    18:00 +22°C° 0 mm 6 mps 760 mmHg 34%
    19:00 +22°C° 0 mm 6 mps 760 mmHg 33%
    20:00 +22°C° 0 mm 6 mps 761 mmHg 33%
    21:00 +21°C° 0 mm 6 mps 761 mmHg 33%
    22:00 +21°C° 0 mm 6 mps 761 mmHg 34%
    23:00 +21°C° 0 mm 6 mps 761 mmHg 35%
    Show more